• In Uzbekistan
  • List of Countries
  • For 7 days
  • Water Temperature
  • Satellite Maps
  • Weather Map
  • Weather Widgets
  • user-avatar
    Login

    Hourly Weather Regina

    Today, 22 October, Monday

    Time Temperature Precipitation Wind Pressure Humidity
    00:00 +4°C° 0 mm 4 mps 713 mmHg 60%
    01:00 +4°C° 0 mm 4 mps 714 mmHg 64%
    02:00 +3°C° 0 mm 3 mps 714 mmHg 69%
    03:00 +2°C° 0 mm 3 mps 715 mmHg 72%
    04:00 +2°C° 0 mm 3 mps 715 mmHg 76%
    05:00 +1°C° 0 mm 3 mps 716 mmHg 80%
    06:00 +1°C° 0 mm 3 mps 716 mmHg 77%
    07:00 +1°C° 0 mm 3 mps 716 mmHg 75%
    08:00 +1°C° 0 mm 3 mps 717 mmHg 73%
    09:00 +2°C° 0 mm 3 mps 717 mmHg 63%
    10:00 +4°C° 0 mm 3 mps 717 mmHg 54%
    11:00 +6°C° 0 mm 2 mps 718 mmHg 45%
    12:00 +7°C° 0 mm 2 mps 717 mmHg 41%
    13:00 +7°C° 0 mm 2 mps 717 mmHg 37%
    14:00 +8°C° 0 mm 2 mps 717 mmHg 33%
    15:00 +8°C° 0 mm 1 mps 717 mmHg 36%
    16:00 +7°C° 0 mm 1 mps 717 mmHg 38%
    17:00 +6°C° 0 mm 1 mps 717 mmHg 40%
    18:00 +6°C° 0 mm 1 mps 717 mmHg 42%
    19:00 +4°C° 0 mm 2 mps 717 mmHg 43%
    20:00 +4°C° 0 mm 2 mps 717 mmHg 45%
    21:00 +3°C° 0 mm 2 mps 718 mmHg 46%
    22:00 +2°C° 0 mm 3 mps 718 mmHg 48%
    23:00 +1°C° 0 mm 3 mps 718 mmHg 49%

    Tomorrow, 23 October, Tuesday

    Time Temperature Precipitation Wind Pressure Humidity
    00:00 +1°C° 0 mm 3 mps 718 mmHg 50%
    01:00 +1°C° 0 mm 3 mps 718 mmHg 51%
    02:00 0°C° 0 mm 3 mps 718 mmHg 52%
    03:00 0°C° 0 mm 3 mps 717 mmHg 53%
    04:00 0°C° 0 mm 3 mps 717 mmHg 54%
    05:00 -1°C° 0 mm 4 mps 717 mmHg 55%
    06:00 -1°C° 0 mm 4 mps 717 mmHg 54%
    07:00 0°C° 0 mm 5 mps 717 mmHg 52%
    08:00 0°C° 0 mm 5 mps 716 mmHg 51%
    09:00 +2°C° 0 mm 5 mps 716 mmHg 47%
    10:00 +4°C° 0 mm 6 mps 716 mmHg 42%
    11:00 +7°C° 0 mm 6 mps 716 mmHg 38%
    12:00 +8°C° 0 mm 6 mps 715 mmHg 37%
    13:00 +9°C° 0 mm 6 mps 715 mmHg 35%
    14:00 +10°C° 0 mm 6 mps 714 mmHg 34%
    15:00 +9°C° 0 mm 6 mps 714 mmHg 37%
    16:00 +8°C° 0 mm 6 mps 713 mmHg 39%
    17:00 +7°C° 0 mm 5 mps 713 mmHg 41%
    18:00 +5°C° 0 mm 6 mps 713 mmHg 42%
    19:00 +5°C° 0 mm 6 mps 713 mmHg 43%
    20:00 +4°C° 0 mm 6 mps 713 mmHg 43%
    21:00 +4°C° 0 mm 6 mps 712 mmHg 45%
    22:00 +4°C° 0 mm 6 mps 712 mmHg 46%
    23:00 +3°C° 0 mm 6 mps 712 mmHg 47%

    Day after tomorrow, 24 October, Wednesday

    Time Temperature Precipitation Wind Pressure Humidity
    00:00 +3°C° 0 mm 6 mps 712 mmHg 49%
    01:00 +3°C° 0 mm 6 mps 711 mmHg 52%
    02:00 +3°C° 0 mm 6 mps 711 mmHg 54%
    03:00 +2°C° 0 mm 6 mps 711 mmHg 56%
    04:00 +2°C° 0 mm 5 mps 710 mmHg 59%
    05:00 +2°C° 0 mm 5 mps 710 mmHg 62%
    06:00 +2°C° 0 mm 5 mps 710 mmHg 62%
    07:00 +2°C° 0 mm 6 mps 710 mmHg 62%
    08:00 +2°C° 0 mm 6 mps 710 mmHg 62%
    09:00 +4°C° 0 mm 6 mps 710 mmHg 58%
    10:00 +6°C° 0 mm 5 mps 709 mmHg 53%
    11:00 +8°C° 0 mm 5 mps 709 mmHg 49%
    12:00 +9°C° 0 mm 5 mps 709 mmHg 48%
    13:00 +10°C° 0 mm 5 mps 708 mmHg 47%
    14:00 +12°C° 0 mm 5 mps 708 mmHg 46%
    15:00 +10°C° 0 mm 5 mps 708 mmHg 50%
    16:00 +10°C° 0 mm 4 mps 707 mmHg 55%
    17:00 +8°C° 0 mm 4 mps 707 mmHg 60%
    18:00 +8°C° 0 mm 4 mps 707 mmHg 64%
    19:00 +7°C° 0 mm 4 mps 707 mmHg 68%
    20:00 +7°C° 0 mm 4 mps 707 mmHg 73%
    21:00 +7°C° 0 mm 4 mps 706 mmHg 76%
    22:00 +8°C° 0 mm 3 mps 706 mmHg 78%
    23:00 +7°C° 0 mm 3 mps 706 mmHg 81%

    25 October, Thursday

    Time Temperature Precipitation Wind Pressure Humidity
    00:00 +7°C° 0 mm 3 mps 706 mmHg 80%
    01:00 +7°C° 0 mm 3 mps 705 mmHg 80%
    02:00 +7°C° 0 mm 3 mps 705 mmHg 79%
    03:00 +7°C° 0 mm 3 mps 705 mmHg 76%
    04:00 +7°C° 0 mm 3 mps 705 mmHg 74%
    05:00 +5°C° 0 mm 3 mps 705 mmHg 71%
    06:00 +5°C° 0 mm 3 mps 705 mmHg 70%
    07:00 +7°C° 0 mm 3 mps 705 mmHg 68%
    08:00 +6°C° 0 mm 4 mps 705 mmHg 67%
    09:00 +7°C° 0 mm 4 mps 705 mmHg 62%
    10:00 +9°C° 0 mm 5 mps 705 mmHg 58%
    11:00 +10°C° 0 mm 5 mps 705 mmHg 53%
    12:00 +11°C° 0 mm 6 mps 704 mmHg 51%
    13:00 +11°C° 0 mm 6 mps 704 mmHg 49%
    14:00 +13°C° 0 mm 6 mps 704 mmHg 47%
    15:00 +10°C° 0 mm 5 mps 704 mmHg 52%
    16:00 +10°C° 0 mm 4 mps 704 mmHg 57%
    17:00 +9°C° 0 mm 3 mps 704 mmHg 61%
    18:00 +8°C° 0 mm 3 mps 704 mmHg 65%
    19:00 +8°C° 0 mm 3 mps 704 mmHg 69%
    20:00 +7°C° 0 mm 3 mps 704 mmHg 73%
    21:00 +5°C° 0 mm 3 mps 704 mmHg 75%
    22:00 +6°C° 0 mm 2 mps 704 mmHg 77%
    23:00 +5°C° 0 mm 2 mps 704 mmHg 80%

    26 October, Friday

    Time Temperature Precipitation Wind Pressure Humidity
    00:00 +5°C° 0 mm 2 mps 704 mmHg 81%
    01:00 +6°C° 0 mm 1 mps 704 mmHg 82%
    02:00 +5°C° 0 mm 1 mps 704 mmHg 83%
    03:00 +5°C° 0 mm 1 mps 703 mmHg 83%
    04:00 +5°C° 0 mm 1 mps 703 mmHg 83%
    05:00 +5°C° 0 mm 1 mps 703 mmHg 82%
    06:00 +5°C° 0 mm 1 mps 703 mmHg 80%
    07:00 +6°C° 0 mm 1 mps 702 mmHg 77%
    08:00 +5°C° 0 mm 2 mps 702 mmHg 75%
    09:00 +6°C° 0 mm 2 mps 702 mmHg 70%
    10:00 +8°C° 0 mm 2 mps 702 mmHg 65%
    11:00 +9°C° 0 mm 2 mps 701 mmHg 60%
    12:00 +9°C° 0.1 mm 3 mps 702 mmHg 62%
    13:00 +8°C° 0.1 mm 4 mps 702 mmHg 63%
    14:00 +8°C° 0.1 mm 5 mps 702 mmHg 64%
    15:00 +7°C° 0.3 mm 5 mps 702 mmHg 69%
    16:00 +7°C° 0.3 mm 6 mps 703 mmHg 75%
    17:00 +5°C° 0.3 mm 6 mps 703 mmHg 80%
    18:00 +5°C° 0.5 mm 7 mps 704 mmHg 76%
    19:00 +5°C° 0.5 mm 7 mps 704 mmHg 72%
    20:00 +5°C° 0.5 mm 8 mps 705 mmHg 68%
    21:00 +5°C° 0.1 mm 8 mps 705 mmHg 69%
    22:00 +5°C° 0.1 mm 8 mps 705 mmHg 70%
    23:00 +5°C° 0.1 mm 8 mps 705 mmHg 71%

    27 October, Saturday

    Time Temperature Precipitation Wind Pressure Humidity
    00:00 +4°C° 0 mm 8 mps 706 mmHg 71%
    01:00 +4°C° 0 mm 8 mps 706 mmHg 71%
    02:00 +3°C° 0 mm 9 mps 707 mmHg 70%
    03:00 +3°C° 0 mm 9 mps 707 mmHg 69%
    04:00 +3°C° 0 mm 9 mps 707 mmHg 67%
    05:00 +2°C° 0 mm 9 mps 708 mmHg 66%
    06:00 +2°C° 0 mm 9 mps 709 mmHg 66%
    07:00 +2°C° 0 mm 8 mps 709 mmHg 66%
    08:00 +2°C° 0 mm 8 mps 710 mmHg 66%
    09:00 +4°C° 0 mm 8 mps 710 mmHg 60%
    10:00 +5°C° 0 mm 8 mps 710 mmHg 55%
    11:00 +6°C° 0 mm 8 mps 711 mmHg 50%
    12:00 +7°C° 0 mm 8 mps 711 mmHg 47%
    13:00 +7°C° 0 mm 8 mps 711 mmHg 44%
    14:00 +9°C° 0 mm 7 mps 711 mmHg 40%
    15:00 +8°C° 0 mm 6 mps 711 mmHg 44%
    16:00 +7°C° 0 mm 5 mps 711 mmHg 47%
    17:00 +6°C° 0 mm 4 mps 711 mmHg 51%
    18:00 +5°C° 0 mm 3 mps 711 mmHg 54%
    19:00 +5°C° 0 mm 3 mps 711 mmHg 57%
    20:00 +5°C° 0 mm 2 mps 711 mmHg 60%
    21:00 +4°C° 0 mm 2 mps 711 mmHg 60%
    22:00 +4°C° 0 mm 2 mps 711 mmHg 61%
    23:00 +4°C° 0 mm 2 mps 711 mmHg 62%

    28 October, Sunday

    Time Temperature Precipitation Wind Pressure Humidity
    00:00 +4°C° 0 mm 2 mps 711 mmHg 61%
    01:00 +4°C° 0 mm 2 mps 711 mmHg 60%
    02:00 +4°C° 0 mm 1 mps 711 mmHg 60%
    03:00 +3°C° 0 mm 2 mps 710 mmHg 59%
    04:00 +3°C° 0 mm 2 mps 710 mmHg 59%
    05:00 +3°C° 0 mm 2 mps 710 mmHg 58%
    06:00 +3°C° 0 mm 2 mps 710 mmHg 57%
    07:00 +2°C° 0 mm 3 mps 710 mmHg 56%
    08:00 +3°C° 0 mm 3 mps 710 mmHg 55%
    09:00 +4°C° 0 mm 4 mps 710 mmHg 49%
    10:00 +6°C° 0 mm 4 mps 710 mmHg 42%
    11:00 +8°C° 0 mm 5 mps 709 mmHg 36%
    12:00 +9°C° 0 mm 5 mps 709 mmHg 34%
    13:00 +11°C° 0 mm 4 mps 709 mmHg 32%
    14:00 +12°C° 0 mm 4 mps 709 mmHg 30%
    15:00 +11°C° 0 mm 4 mps 708 mmHg 34%
    16:00 +10°C° 0 mm 4 mps 708 mmHg 38%
    17:00 +8°C° 0 mm 3 mps 707 mmHg 41%
    18:00 +7°C° 0 mm 4 mps 707 mmHg 43%
    19:00 +7°C° 0 mm 4 mps 707 mmHg 45%
    20:00 +6°C° 0 mm 4 mps 707 mmHg 47%
    21:00 +6°C° 0 mm 4 mps 706 mmHg 49%
    22:00 +6°C° 0 mm 4 mps 706 mmHg 51%
    23:00 +6°C° 0 mm 5 mps 705 mmHg 53%
    Show more